GW2661 Weather Reports


Display with metric or nautical units.
time (UTC)temp
F
wind
direction
speed
MPH
gust
MPH
rain 1hr
in
rain 24hr
in
rain mn
in
humidity
%
barometer
mb
20260503191019 61 285 2.0 8.0 0.00 0.00 0.00 72 1013.5
20260503190516 60 288 5.0 7.0 0.00 0.00 0.00 74 1013.3
20260503190013 60 216 5.0 13.0 0.00 0.00 0.00 74 1013.5
20260503185509 61 18 1.0 5.0 0.00 0.00 0.00 73 1013.4
20260503185009 61 299 9.0 10.0 0.00 0.00 0.00 74 1013.5
20260503184506 61 43 3.0 9.0 0.00 0.00 0.00 75 1013.4
20260503184002 61 243 1.0 8.0 0.00 0.00 0.00 75 1013.3
20260503183459 61 289 2.0 3.0 0.00 0.00 0.00 74 1013.4
20260503182955 60 218 5.0 9.0 0.00 0.00 0.00 74 1013.4
20260503182455 61 182 6.0 10.0 0.00 0.00 0.00 73 1013.5
20260503181952 60 13 0.0 8.0 0.00 0.00 0.00 75 1013.3
20260503181449 60 214 7.0 9.0 0.00 0.00 0.00 74 1013.6
20260503180945 60 44 4.0 7.0 0.00 0.00 0.00 75 1013.3
20260503180443 59 349 1.0 7.0 0.00 0.00 0.00 76 1013.4
20260503175939 60 339 0.0 6.0 0.00 0.00 0.00 75 1013.4
20260503175438 60 341 1.0 5.0 0.00 0.00 0.00 75 1013.4
20260503174939 59 262 4.0 6.0 0.00 0.00 0.00 76 1013.5
20260503174437 59 240 2.0 6.0 0.00 0.00 0.00 77 1013.4
20260503173932 59 213 5.0 8.0 0.00 0.00 0.00 77 1013.4
20260503173428 59 167 0.0 5.0 0.00 0.00 0.00 78 1013.4
20260503172925 59 204 3.0 5.0 0.00 0.00 0.00 77 1013.3
20260503172422 59 227 10.0 11.0 0.00 0.00 0.00 78 1013.4
20260503171918 59 157 3.0 6.0 0.00 0.00 0.00 79 1013.5
20260503171415 59 200 6.0 7.0 0.00 0.00 0.00 78 1013.3
20260503170913 59 291 4.0 6.0 0.00 0.00 0.00 78 1013.3
20260503170409 59 321 0.0 3.0 0.00 0.00 0.00 78 1013.3
20260503150801 55 174 2.0 2.0 0.00 0.00 0.00 84 1012.9
20260503150257 55 168 3.0 3.0 0.00 0.00 0.00 83 1012.9
20260503140222 54 10 0.0 0.0 0.00 0.00 0.00 84 1012.0
20260503131151 54 319 4.0 6.0 0.00 0.00 0.00 84 1011.3
20260503130649 54 340 2.0 3.0 0.00 0.00 0.00 85 1011.4
20260503130146 54 347 0.0 2.0 0.00 0.00 0.00 85 1011.2
20260503120112 54 36 0.0 0.0 0.00 0.00 0.00 85 1011.5
20260503110539 54 325 4.0 6.0 0.00 0.00 0.00 84 1011.5
20260503090426 54 217 1.0 7.0 0.00 0.00 0.00 85 1011.8
20260503081352 54 220 1.0 2.0 0.00 0.00 0.00 85 1012.4
20260503080849 54 296 1.0 2.0 0.00 0.00 0.00 85 1012.4
20260503080346 54 337 0.0 2.0 0.00 0.00 0.00 85 1012.3
20260503072823 54 44 1.0 3.0 0.00 0.00 0.00 85 1012.3
20260503072320 54 320 1.0 3.0 0.00 0.00 0.00 85 1012.5
20260503071815 54 15 0.0 2.0 0.00 0.00 0.00 85 1012.4
20260503071313 54 346 1.0 5.0 0.00 0.00 0.00 85 1012.2
20260503070809 54 343 0.0 3.0 0.00 0.00 0.00 85 1012.3
20260503070307 54 331 1.0 2.0 0.00 0.00 0.00 85 1012.2
20260503060238 54 309 0.0 1.0 0.00 0.00 0.00 85 1012.6
20260503054725 54 305 0.0 3.0 0.00 0.00 0.00 85 1012.9
20260503054222 54 212 3.0 6.0 0.00 0.00 0.00 85 1012.7
20260503053720 54 13 0.0 5.0 0.00 0.00 0.00 85 1013.0
20260503053219 54 292 1.0 3.0 0.00 0.00 0.00 85 1012.9
20260503052714 54 292 3.0 5.0 0.00 0.00 0.00 85 1012.7
20260503052211 54 304 2.0 3.0 0.00 0.00 0.00 85 1012.8
20260503051706 54 288 4.0 8.0 0.00 0.00 0.00 85 1012.8
20260503051204 54 18 2.0 5.0 0.00 0.00 0.00 85 1012.6
20260503050701 54 320 0.0 7.0 0.00 0.00 0.00 85 1012.8
20260503050157 54 3 2.0 8.0 0.00 0.00 0.00 85 1012.8
20260503045655 54 352 0.0 6.0 0.00 0.00 0.00 85 1012.6
20260503045152 54 345 2.0 6.0 0.00 0.00 0.00 85 1012.6
20260503044648 54 278 6.0 9.0 0.00 0.00 0.00 85 1012.6
20260503044146 54 242 5.0 7.0 0.00 0.00 0.00 85 1012.5
20260503043643 54 248 5.0 11.0 0.00 0.00 0.00 85 1012.6
20260503043140 54 271 4.0 6.0 0.00 0.00 0.00 85 1012.6
20260503042636 54 318 4.0 11.0 0.00 0.00 0.00 85 1012.6
20260503042132 54 281 5.0 7.0 0.00 0.00 0.00 85 1012.6
20260503041629 55 272 5.0 10.0 0.00 0.00 0.00 85 1012.7
20260503041127 54 40 4.0 8.0 0.00 0.00 0.00 85 1012.5
20260503040624 54 333 3.0 8.0 0.00 0.00 0.00 85 1012.6
20260503040121 54 266 3.0 6.0 0.00 0.00 0.00 85 1012.6
20260503035617 54 284 3.0 6.0 0.00 0.00 0.00 85 1012.4
20260503035115 54 41 1.0 2.0 0.00 0.00 0.00 85 1012.4
20260503034612 54 308 2.0 6.0 0.00 0.00 0.00 85 1012.2
20260503034110 55 340 6.0 8.0 0.00 0.00 0.00 85 1012.5
20260503033607 55 283 4.0 7.0 0.00 0.00 0.00 85 1012.2
20260503033104 54 280 4.0 6.0 0.00 0.00 0.00 85 1012.1
20260503032603 55 294 7.0 8.0 0.00 0.00 0.00 85 1012.0
20260503032100 55 275 3.0 7.0 0.00 0.00 0.00 85 1012.0
20260503031558 55 333 2.0 5.0 0.00 0.00 0.00 85 1012.0
20260503031055 55 7 2.0 3.0 0.00 0.00 0.00 85 1011.7
20260503030551 55 284 1.0 8.0 0.00 0.00 0.00 85 1011.9
20260503030048 55 288 3.0 8.0 0.00 0.00 0.00 84 1011.8
20260503025545 55 280 9.0 10.0 0.00 0.00 0.00 84 1011.7
20260503025043 55 230 3.0 9.0 0.00 0.00 0.00 85 1011.9
20260503024538 55 285 7.0 13.0 0.00 0.00 0.00 85 1012.0
20260503024036 55 268 4.0 7.0 0.00 0.00 0.00 84 1011.6
20260503023533 55 277 3.0 6.0 0.00 0.00 0.00 84 1011.9
20260503023031 55 283 4.0 9.0 0.00 0.00 0.00 84 1011.7
20260503022526 55 323 2.0 6.0 0.00 0.00 0.00 84 1011.8
20260503022021 55 321 3.0 10.0 0.00 0.00 0.00 84 1011.7
20260503021518 55 318 2.0 6.0 0.00 0.00 0.00 84 1011.8
20260503021015 55 298 3.0 11.0 0.00 0.00 0.00 84 1011.9
20260503020512 56 302 7.0 9.0 0.00 0.00 0.00 84 1011.7
20260503020009 56 338 3.0 8.0 0.00 0.00 0.00 84 1011.9
20260503015505 56 297 0.0 9.0 0.00 0.00 0.00 83 1011.7
20260503015002 56 293 6.0 9.0 0.00 0.00 0.00 83 1011.9
20260503014459 56 289 5.0 7.0 0.00 0.00 0.00 83 1012.0
20260503013957 57 273 4.0 9.0 0.00 0.00 0.00 82 1012.2
20260503013453 57 287 2.0 6.0 0.00 0.00 0.00 82 1012.1
20260503012950 57 296 3.0 6.0 0.00 0.00 0.00 81 1012.1
20260503012449 57 16 1.0 3.0 0.00 0.00 0.00 81 1012.1
20260503011944 57 275 9.0 13.0 0.00 0.00 0.00 81 1012.1
20260503011441 57 45 3.0 6.0 0.00 0.00 0.00 82 1012.1
20260503010939 57 229 3.0 7.0 0.00 0.00 0.00 81 1011.8
20260503010435 58 300 2.0 9.0 0.00 0.00 0.00 80 1012.2
20260503005932 58 254 2.0 8.0 0.00 0.00 0.00 80 1012.2
20260503005430 57 271 3.0 10.0 0.00 0.00 0.00 80 1012.2
20260503004926 58 314 5.0 10.0 0.00 0.00 0.00 80 1011.9
20260503004423 59 276 6.0 10.0 0.00 0.00 0.00 79 1012.3
20260503003921 59 304 3.0 8.0 0.00 0.00 0.00 78 1012.2
20260503003417 59 254 2.0 8.0 0.00 0.00 0.00 78 1012.2
20260503002915 59 38 3.0 11.0 0.00 0.00 0.00 78 1012.3
20260503002412 59 266 8.0 13.0 0.00 0.00 0.00 77 1012.1
20260503001908 59 350 2.0 11.0 0.00 0.00 0.00 77 1012.2
20260503001404 59 19 3.0 16.0 0.00 0.00 0.00 78 1012.2
20260503000902 60 301 8.0 11.0 0.00 0.00 0.00 76 1012.1
20260503000400 61 241 7.0 9.0 0.00 0.00 0.00 73 1012.0
20260502235856 63 239 4.0 8.0 0.00 0.00 0.00 71 1012.4
20260502235353 60 262 3.0 9.0 0.00 0.00 0.00 75 1012.3
20260502234850 60 241 7.0 10.0 0.00 0.00 0.00 76 1012.3
20260502234347 61 204 4.0 13.0 0.00 0.00 0.00 75 1012.4
20260502233844 61 286 7.0 16.0 0.00 0.00 0.00 75 1012.2
20260502233340 62 297 3.0 16.0 0.00 0.00 0.00 74 1012.3
20260502232837 63 263 5.0 10.0 0.00 0.00 0.00 72 1012.2
20260502232333 62 219 2.0 8.0 0.00 0.00 0.00 73 1012.3
20260502231830 63 207 7.0 13.0 0.00 0.00 0.00 73 1012.4
20260502231328 63 269 4.0 11.0 0.00 0.00 0.00 72 1012.3
20260502230826 62 351 4.0 10.0 0.00 0.00 0.00 74 1012.4
20260502230324 63 8 1.0 11.0 0.00 0.00 0.00 72 1012.4
20260502225820 63 292 9.0 11.0 0.00 0.00 0.00 71 1012.7
20260502225317 64 240 3.0 8.0 0.00 0.00 0.00 69 1012.8
20260502224814 64 291 5.0 9.0 0.00 0.00 0.00 71 1012.6
20260502224310 66 288 5.0 8.0 0.00 0.00 0.00 68 1012.8
20260502223808 63 328 5.0 13.0 0.00 0.00 0.00 73 1012.7
20260502223306 66 192 2.0 15.0 0.00 0.00 0.00 69 1013.0
20260502222803 65 235 4.0 6.0 0.00 0.00 0.00 70 1013.0
20260502222300 64 43 4.0 10.0 0.00 0.00 0.00 72 1013.0
20260502221755 63 209 8.0 10.0 0.00 0.00 0.00 73 1012.9
20260502221252 63 299 3.0 11.0 0.00 0.00 0.00 70 1013.0
20260502220749 64 294 3.0 9.0 0.00 0.00 0.00 73 1012.9
20260502220245 66 279 5.0 11.0 0.00 0.00 0.00 71 1013.1
20260502215742 64 303 6.0 13.0 0.00 0.00 0.00 73 1013.1
20260502215239 63 339 4.0 8.0 0.00 0.00 0.00 74 1013.2
20260502214736 64 28 1.0 10.0 0.00 0.00 0.00 73 1013.1
20260502214234 64 330 7.0 11.0 0.00 0.00 0.00 72 1013.1
20260502213730 64 223 10.0 15.0 0.00 0.00 0.00 76 1013.1
20260502213227 64 229 4.0 7.0 0.00 0.00 0.00 72 1013.4
20260502212726 64 36 1.0 11.0 0.00 0.00 0.00 75 1013.2
20260502212224 63 196 6.0 10.0 0.00 0.00 0.00 74 1013.3
20260502211720 64 238 3.0 8.0 0.00 0.00 0.00 72 1013.4
20260502211217 63 190 5.0 11.0 0.00 0.00 0.00 77 1013.4
20260502210714 63 292 3.0 8.0 0.00 0.00 0.00 76 1013.4
20260502210211 64 99 4.0 7.0 0.00 0.00 0.00 74 1013.5
20260502205708 63 293 10.0 15.0 0.00 0.00 0.00 77 1013.5
20260502205204 63 286 6.0 9.0 0.00 0.00 0.00 76 1013.4
20260502204701 64 340 3.0 3.0 0.00 0.00 0.00 74 1013.3
20260502204159 64 216 6.0 11.0 0.00 0.00 0.00 77 1013.5
20260502203656 64 237 2.0 5.0 0.00 0.00 0.00 76 1013.5
20260502203155 62 226 9.0 13.0 0.00 0.00 0.00 78 1013.7
20260502202648 61 197 9.0 13.0 0.00 0.00 0.00 81 1013.5
20260502202147 64 301 3.0 7.0 0.00 0.00 0.00 77 1013.7
20260502201643 63 279 0.0 7.0 0.00 0.00 0.00 77 1013.7
20260502201140 63 206 5.0 7.0 0.00 0.00 0.00 78 1013.8
20260502200636 64 31 1.0 5.0 0.00 0.00 0.00 77 1013.6
20260502200133 64 275 2.0 7.0 0.00 0.00 0.00 77 1013.6
20260502195631 63 231 4.0 9.0 0.00 0.00 0.00 76 1014.0
20260502195126 65 350 0.0 8.0 0.00 0.00 0.00 74 1013.8
20260502194624 65 327 4.0 6.0 0.00 0.00 0.00 74 1013.9
20260502194120 63 168 4.0 9.0 0.00 0.00 0.00 79 1013.7
20260502193617 63 175 3.0 8.0 0.00 0.00 0.00 77 1013.8
20260502193114 64 287 3.0 8.0 0.00 0.00 0.00 75 1013.7
20260502192609 64 220 7.0 8.0 0.00 0.00 0.00 77 1013.9
20260502192107 65 279 3.0 8.0 0.00 0.00 0.00 75 1013.6
20260502191604 65 10 1.0 8.0 0.00 0.00 0.00 75 1013.8
20260502191101 66 245 4.0 9.0 0.00 0.00 0.00 74 1013.5